| time (UTC) | temp F | wind direction | speed knots | gust knots | rain 1hr in | rain 24hr in | rain mn in | humidity % | barometer mb |
| 20260506185510 | 53 | 0 | 0.0 | 2.6 | 0.00 | 0.04 | 0.00 | 70 | 1028.7 |
| 20260506185016 | 53 | 0 | 0.0 | 4.3 | 0.00 | 0.04 | 0.00 | 70 | 1028.7 |
| 20260506184531 | 53 | 0 | 0.9 | 4.3 | 0.00 | 0.04 | 0.00 | 70 | 1028.6 |
| 20260506184011 | 53 | 0 | 0.0 | 4.3 | 0.00 | 0.04 | 0.00 | 70 | 1028.8 |
| 20260506183511 | 52 | 0 | 0.9 | 4.3 | 0.00 | 0.04 | 0.00 | 70 | 1028.8 |
| 20260506183028 | 52 | 0 | 0.0 | 4.3 | 0.00 | 0.04 | 0.00 | 70 | 1028.7 |
| 20260506182511 | 52 | 237 | 0.0 | 4.3 | 0.00 | 0.04 | 0.00 | 70 | 1028.7 |
| 20260506182012 | 52 | 246 | 0.0 | 1.7 | 0.00 | 0.04 | 0.00 | 70 | 1028.6 |
| 20260506181534 | 52 | 248 | 0.0 | 3.5 | 0.00 | 0.04 | 0.00 | 69 | 1028.5 |
| 20260506181012 | 52 | 0 | 0.0 | 3.5 | 0.00 | 0.04 | 0.00 | 69 | 1028.6 |
| 20260506180509 | 52 | 0 | 0.0 | 2.6 | 0.00 | 0.04 | 0.00 | 69 | 1028.6 |
| 20260506180031 | 52 | 0 | 0.0 | 3.5 | 0.00 | 0.04 | 0.00 | 69 | 1028.4 |
| 20260506175514 | 52 | 248 | 0.0 | 3.5 | 0.00 | 0.04 | 0.00 | 69 | 1028.6 |
| 20260506175012 | 52 | 0 | 0.0 | 2.6 | 0.00 | 0.04 | 0.00 | 69 | 1028.6 |
| 20260506174532 | 52 | 0 | 0.0 | 2.6 | 0.00 | 0.04 | 0.00 | 69 | 1028.7 |
| 20260506174011 | 52 | 0 | 0.0 | 0.0 | 0.00 | 0.04 | 0.00 | 68 | 1028.6 |
| 20260506173509 | 52 | 0 | 0.0 | 0.0 | 0.00 | 0.04 | 0.00 | 68 | 1028.6 |
| 20260506173031 | 52 | 0 | 0.0 | 0.0 | 0.00 | 0.04 | 0.00 | 67 | 1028.7 |
| 20260506172512 | 52 | 0 | 0.0 | 0.0 | 0.00 | 0.04 | 0.00 | 67 | 1028.6 |
| 20260506172011 | 52 | 0 | 0.0 | 0.0 | 0.00 | 0.04 | 0.00 | 66 | 1028.6 |
| 20260506171540 | 52 | 0 | 0.0 | 0.0 | 0.00 | 0.04 | 0.00 | 66 | 1028.5 |
| 20260506171011 | 52 | 0 | 0.0 | 0.0 | 0.00 | 0.04 | 0.00 | 65 | 1028.7 |
| 20260506170512 | 52 | 0 | 0.0 | 0.0 | 0.00 | 0.04 | 0.00 | 65 | 1028.7 |
| 20260506170037 | 53 | 0 | 0.0 | 0.0 | 0.00 | 0.04 | 0.00 | 64 | 1028.7 |
| 20260506165509 | 53 | 0 | 0.0 | 0.0 | 0.00 | 0.04 | 0.00 | 64 | 1028.8 |
| 20260506165008 | 53 | 0 | 0.0 | 0.0 | 0.00 | 0.04 | 0.00 | 64 | 1028.9 |
| 20260506164532 | 53 | 0 | 0.0 | 0.0 | 0.00 | 0.04 | 0.00 | 64 | 1028.8 |
| 20260506164010 | 54 | 0 | 0.0 | 0.0 | 0.00 | 0.04 | 0.00 | 64 | 1028.7 |
| 20260506163515 | 54 | 0 | 0.0 | 0.0 | 0.00 | 0.04 | 0.00 | 64 | 1028.7 |
| 20260506163029 | 54 | 0 | 0.0 | 2.6 | 0.00 | 0.04 | 0.00 | 64 | 1028.8 |
| 20260506162511 | 54 | 0 | 0.0 | 2.6 | 0.00 | 0.04 | 0.00 | 64 | 1028.8 |
| 20260506162014 | 54 | 0 | 0.0 | 2.6 | 0.00 | 0.04 | 0.00 | 64 | 1028.8 |
| 20260506161528 | 55 | 256 | 0.0 | 2.6 | 0.00 | 0.04 | 0.00 | 63 | 1028.6 |
| 20260506161012 | 55 | 0 | 0.9 | 2.6 | 0.00 | 0.04 | 0.00 | 63 | 1028.6 |
| 20260506160510 | 55 | 264 | 0.0 | 3.5 | 0.00 | 0.04 | 0.00 | 63 | 1028.6 |
| 20260506160032 | 55 | 265 | 0.9 | 7.0 | 0.00 | 0.04 | 0.00 | 62 | 1028.5 |
| 20260506155508 | 55 | 267 | 0.9 | 7.0 | 0.00 | 0.04 | 0.00 | 62 | 1028.5 |
| 20260506155010 | 55 | 274 | 0.9 | 7.0 | 0.00 | 0.04 | 0.00 | 62 | 1028.6 |
| 20260506154532 | 55 | 239 | 0.9 | 4.3 | 0.00 | 0.04 | 0.00 | 61 | 1028.5 |
| 20260506154012 | 55 | 255 | 0.9 | 7.0 | 0.00 | 0.04 | 0.00 | 61 | 1028.5 |
| 20260506153513 | 55 | 263 | 0.9 | 7.0 | 0.00 | 0.04 | 0.00 | 61 | 1028.5 |
| 20260506153032 | 55 | 135 | 0.9 | 3.5 | 0.00 | 0.04 | 0.00 | 61 | 1028.5 |
| 20260506152509 | 55 | 0 | 0.0 | 4.3 | 0.00 | 0.04 | 0.00 | 61 | 1028.5 |
| 20260506152011 | 55 | 288 | 0.9 | 4.3 | 0.00 | 0.04 | 0.00 | 61 | 1028.5 |
| 20260506151534 | 55 | 292 | 0.0 | 6.1 | 0.00 | 0.04 | 0.00 | 62 | 1028.5 |
| 20260506151014 | 55 | 0 | 0.9 | 6.1 | 0.00 | 0.04 | 0.00 | 62 | 1028.5 |
| 20260506150510 | 55 | 303 | 0.0 | 3.5 | 0.00 | 0.04 | 0.00 | 62 | 1028.5 |
| 20260506150030 | 55 | 0 | 0.0 | 3.5 | 0.00 | 0.04 | 0.00 | 63 | 1028.4 |
| 20260506145514 | 55 | 0 | 0.0 | 5.2 | 0.00 | 0.04 | 0.00 | 63 | 1028.4 |
| 20260506145010 | 55 | 309 | 0.9 | 6.1 | 0.00 | 0.04 | 0.00 | 63 | 1028.4 |
| 20260506144529 | 55 | 165 | 1.7 | 6.1 | 0.00 | 0.04 | 0.00 | 64 | 1028.5 |
| 20260506144015 | 55 | 236 | 0.0 | 6.1 | 0.00 | 0.04 | 0.00 | 64 | 1028.4 |
| 20260506143509 | 55 | 237 | 1.7 | 7.8 | 0.00 | 0.04 | 0.00 | 64 | 1028.5 |
| 20260506143028 | 55 | 246 | 1.7 | 7.8 | 0.00 | 0.04 | 0.00 | 65 | 1028.5 |
| 20260506142513 | 55 | 169 | 0.9 | 4.3 | 0.00 | 0.04 | 0.04 | 66 | 1028.4 |
| 20260506142009 | 55 | 0 | 0.9 | 3.5 | 0.00 | 0.04 | 0.04 | 67 | 1028.4 |
| 20260506141528 | 55 | 208 | 0.9 | 2.6 | 0.00 | 0.04 | 0.04 | 67 | 1028.4 |
| 20260506141009 | 55 | 0 | 0.0 | 7.0 | 0.00 | 0.04 | 0.04 | 67 | 1028.3 |
| 20260506140510 | 55 | 211 | 0.9 | 7.0 | 0.00 | 0.04 | 0.04 | 67 | 1028.3 |
| 20260506140029 | 55 | 212 | 1.7 | 8.7 | 0.00 | 0.04 | 0.04 | 67 | 1028.2 |
| 20260506135510 | 55 | 168 | 0.9 | 8.7 | 0.00 | 0.04 | 0.04 | 68 | 1028.2 |
| 20260506135010 | 55 | 207 | 1.7 | 8.7 | 0.00 | 0.04 | 0.04 | 68 | 1028.2 |
| 20260506134530 | 55 | 189 | 0.9 | 5.2 | 0.00 | 0.04 | 0.04 | 68 | 1028.2 |
| 20260506134021 | 55 | 0 | 1.7 | 5.2 | 0.00 | 0.04 | 0.04 | 69 | 1028.2 |
| 20260506133041 | 55 | 188 | 0.9 | 4.3 | 0.00 | 0.04 | 0.04 | 69 | 1028.1 |
| 20260506132509 | 55 | 0 | 0.9 | 7.0 | 0.00 | 0.04 | 0.04 | 69 | 1028.0 |
| 20260506132010 | 56 | 200 | 0.9 | 7.8 | 0.00 | 0.04 | 0.04 | 69 | 1027.9 |
| 20260506131531 | 56 | 182 | 1.7 | 7.8 | 0.00 | 0.04 | 0.04 | 69 | 1027.8 |
| 20260506131010 | 56 | 0 | 0.9 | 6.1 | 0.00 | 0.04 | 0.04 | 69 | 1027.8 |
| 20260506130517 | 56 | 228 | 0.0 | 4.3 | 0.00 | 0.04 | 0.04 | 70 | 1027.8 |
| 20260506130028 | 56 | 0 | 0.0 | 4.3 | 0.00 | 0.04 | 0.04 | 70 | 1027.7 |
| 20260506125510 | 56 | 0 | 0.0 | 4.3 | 0.00 | 0.04 | 0.04 | 70 | 1027.7 |
| 20260506125009 | 56 | 0 | 0.9 | 4.3 | 0.00 | 0.04 | 0.04 | 70 | 1027.8 |
| 20260506124528 | 56 | 0 | 0.0 | 7.8 | 0.00 | 0.04 | 0.04 | 70 | 1027.7 |
| 20260506124009 | 56 | 219 | 0.9 | 7.8 | 0.00 | 0.04 | 0.04 | 70 | 1027.6 |
| 20260506123511 | 56 | 205 | 1.7 | 6.1 | 0.00 | 0.04 | 0.04 | 71 | 1027.6 |
| 20260506123028 | 56 | 206 | 0.9 | 5.2 | 0.00 | 0.04 | 0.04 | 72 | 1027.6 |
| 20260506122509 | 56 | 198 | 0.9 | 8.7 | 0.00 | 0.04 | 0.04 | 72 | 1027.4 |
| 20260506122007 | 56 | 227 | 1.7 | 8.7 | 0.00 | 0.04 | 0.04 | 73 | 1027.4 |
| 20260506121552 | 56 | 257 | 1.7 | 8.7 | 0.00 | 0.04 | 0.04 | 74 | 1027.4 |
| 20260506121012 | 56 | 0 | 0.9 | 4.3 | 0.00 | 0.04 | 0.04 | 75 | 1027.2 |
| 20260506120510 | 56 | 190 | 0.9 | 4.3 | 0.00 | 0.04 | 0.04 | 75 | 1027.3 |
| 20260506120035 | 56 | 0 | 0.0 | 5.2 | 0.00 | 0.04 | 0.04 | 76 | 1027.2 |
| 20260506115514 | 56 | 182 | 0.9 | 5.2 | 0.00 | 0.04 | 0.04 | 76 | 1027.1 |
| 20260506115016 | 56 | 169 | 1.7 | 7.0 | 0.00 | 0.04 | 0.04 | 76 | 1027.1 |
| 20260506114530 | 56 | 161 | 0.9 | 7.0 | 0.00 | 0.04 | 0.04 | 77 | 1027.1 |
| 20260506114016 | 56 | 0 | 0.0 | 4.3 | 0.00 | 0.04 | 0.04 | 77 | 1027.2 |
| 20260506113511 | 56 | 210 | 0.9 | 6.1 | 0.00 | 0.04 | 0.04 | 77 | 1027.0 |
| 20260506113030 | 56 | 209 | 0.9 | 6.1 | 0.00 | 0.04 | 0.04 | 78 | 1027.0 |
| 20260506112509 | 57 | 209 | 0.9 | 5.2 | 0.00 | 0.04 | 0.04 | 78 | 1026.9 |
| 20260506112009 | 57 | 218 | 0.9 | 5.2 | 0.00 | 0.04 | 0.04 | 78 | 1026.9 |
| 20260506111530 | 57 | 213 | 0.9 | 5.2 | 0.00 | 0.04 | 0.04 | 78 | 1026.7 |
| 20260506111011 | 57 | 0 | 0.9 | 4.3 | 0.00 | 0.04 | 0.04 | 78 | 1026.8 |
| 20260506110513 | 57 | 211 | 0.9 | 7.0 | 0.00 | 0.04 | 0.04 | 78 | 1026.7 |
| 20260506110033 | 57 | 0 | 0.0 | 7.0 | 0.00 | 0.04 | 0.04 | 78 | 1026.6 |
| 20260506105511 | 57 | 0 | 0.0 | 2.6 | 0.00 | 0.04 | 0.04 | 78 | 1026.6 |
| 20260506105011 | 57 | 226 | 0.9 | 3.5 | 0.00 | 0.04 | 0.04 | 78 | 1026.4 |
| 20260506104528 | 57 | 226 | 0.0 | 3.5 | 0.00 | 0.04 | 0.04 | 78 | 1026.6 |
| 20260506104008 | 57 | 0 | 0.9 | 3.5 | 0.00 | 0.04 | 0.04 | 79 | 1026.4 |
| 20260506103510 | 58 | 225 | 0.0 | 3.5 | 0.00 | 0.04 | 0.04 | 78 | 1026.4 |
| 20260506103032 | 58 | 0 | 0.0 | 3.5 | 0.00 | 0.04 | 0.04 | 78 | 1026.4 |
| 20260506102509 | 58 | 0 | 0.9 | 3.5 | 0.00 | 0.04 | 0.04 | 78 | 1026.2 |
| 20260506102014 | 58 | 0 | 0.0 | 5.2 | 0.00 | 0.04 | 0.04 | 78 | 1026.2 |
| 20260506101538 | 58 | 225 | 0.9 | 5.2 | 0.00 | 0.04 | 0.04 | 78 | 1026.1 |
| 20260506101014 | 58 | 223 | 0.9 | 5.2 | 0.00 | 0.04 | 0.04 | 79 | 1025.9 |
| 20260506100509 | 58 | 207 | 0.9 | 6.1 | 0.00 | 0.04 | 0.04 | 79 | 1025.8 |
| 20260506100032 | 58 | 206 | 0.9 | 6.1 | 0.00 | 0.04 | 0.04 | 78 | 1025.8 |
| 20260506095509 | 59 | 238 | 0.0 | 5.2 | 0.00 | 0.04 | 0.04 | 78 | 1025.8 |
| 20260506095009 | 59 | 0 | 0.9 | 6.1 | 0.00 | 0.04 | 0.04 | 79 | 1025.7 |
| 20260506094529 | 59 | 235 | 0.9 | 6.1 | 0.00 | 0.04 | 0.04 | 78 | 1025.6 |
| 20260506094009 | 59 | 244 | 0.9 | 6.1 | 0.00 | 0.04 | 0.04 | 78 | 1025.6 |
| 20260506093512 | 60 | 0 | 0.9 | 9.6 | 0.00 | 0.04 | 0.04 | 78 | 1025.5 |
| 20260506093029 | 60 | 283 | 2.6 | 9.6 | 0.00 | 0.04 | 0.04 | 77 | 1025.4 |
| 20260506092511 | 60 | 0 | 0.9 | 7.0 | 0.00 | 0.04 | 0.04 | 77 | 1025.3 |
| 20260506092013 | 60 | 161 | 1.7 | 6.1 | 0.00 | 0.04 | 0.04 | 76 | 1025.1 |
| 20260506091528 | 61 | 213 | 1.7 | 6.1 | 0.00 | 0.04 | 0.04 | 76 | 1025.0 |
| 20260506091010 | 61 | 221 | 1.7 | 4.3 | 0.00 | 0.04 | 0.04 | 76 | 1024.9 |
| 20260506090509 | 61 | 222 | 0.0 | 6.1 | 0.00 | 0.04 | 0.04 | 75 | 1024.8 |
| 20260506090029 | 61 | 221 | 0.9 | 6.1 | 0.00 | 0.04 | 0.04 | 75 | 1024.7 |
| 20260506085510 | 61 | 220 | 0.9 | 6.1 | 0.00 | 0.04 | 0.04 | 74 | 1024.6 |
| 20260506085009 | 61 | 250 | 0.0 | 4.3 | 0.00 | 0.04 | 0.04 | 74 | 1024.7 |
| 20260506084538 | 62 | 0 | 0.0 | 4.3 | 0.00 | 0.04 | 0.04 | 74 | 1024.6 |
| 20260506084009 | 62 | 0 | 0.9 | 4.3 | 0.00 | 0.04 | 0.04 | 73 | 1024.5 |
| 20260506083510 | 62 | 204 | 0.0 | 4.3 | 0.00 | 0.04 | 0.04 | 73 | 1024.5 |
| 20260506083033 | 63 | 0 | 0.0 | 4.3 | 0.00 | 0.04 | 0.04 | 73 | 1024.3 |
| 20260506082509 | 63 | 0 | 0.9 | 4.3 | 0.00 | 0.04 | 0.04 | 72 | 1024.2 |
| 20260506082009 | 63 | 0 | 0.0 | 3.5 | 0.00 | 0.04 | 0.04 | 72 | 1024.3 |
| 20260506081529 | 63 | 0 | 0.9 | 6.1 | 0.00 | 0.04 | 0.04 | 72 | 1024.1 |
| 20260506081010 | 63 | 221 | 0.9 | 6.1 | 0.00 | 0.04 | 0.04 | 70 | 1024.1 |
| 20260506080508 | 63 | 213 | 1.7 | 6.1 | 0.00 | 0.04 | 0.04 | 69 | 1024.0 |
| 20260506073510 | 63 | 207 | 1.7 | 9.6 | 0.00 | 0.04 | 0.04 | 67 | 1023.9 |
| 20260506073030 | 64 | 266 | 2.6 | 9.6 | 0.00 | 0.04 | 0.04 | 66 | 1023.8 |
| 20260506072510 | 64 | 263 | 1.7 | 7.0 | 0.00 | 0.04 | 0.04 | 66 | 1023.8 |
| 20260506072012 | 65 | 360 | 0.9 | 7.0 | 0.00 | 0.04 | 0.04 | 66 | 1023.8 |
| 20260506071530 | 65 | 360 | 1.7 | 7.0 | 0.00 | 0.04 | 0.04 | 66 | 1023.6 |
| 20260506071010 | 65 | 360 | 0.9 | 4.3 | 0.00 | 0.04 | 0.04 | 66 | 1023.6 |
| 20260506070507 | 65 | 360 | 1.7 | 8.7 | 0.00 | 0.04 | 0.04 | 66 | 1023.5 |
| 20260506062509 | 65 | 275 | 1.7 | 8.7 | 0.00 | 0.04 | 0.04 | 67 | 1023.4 |
| 20260506062012 | 66 | 227 | 1.7 | 8.7 | 0.00 | 0.04 | 0.04 | 68 | 1023.3 |
| 20260506061526 | 65 | 277 | 3.5 | 8.7 | 0.00 | 0.04 | 0.04 | 68 | 1023.3 |
| 20260506061011 | 65 | 205 | 1.7 | 8.7 | 0.00 | 0.04 | 0.04 | 69 | 1023.5 |
| 20260506060509 | 65 | 215 | 2.6 | 10.4 | 0.00 | 0.04 | 0.04 | 69 | 1023.4 |
| 20260506051007 | 62 | 277 | 2.6 | 11.3 | 0.00 | 0.04 | 0.04 | 77 | 1023.4 |
| 20260506050510 | 63 | 264 | 4.3 | 11.3 | 0.00 | 0.04 | 0.04 | 77 | 1023.5 |
| 20260506045010 | 63 | 285 | 0.9 | 6.1 | 0.00 | 0.04 | 0.04 | 78 | 1023.2 |
| 20260506044527 | 63 | 286 | 2.6 | 8.7 | 0.00 | 0.04 | 0.04 | 78 | 1023.2 |
| 20260506044008 | 63 | 254 | 2.6 | 9.6 | 0.00 | 0.04 | 0.04 | 79 | 1023.2 |
| 20260506043509 | 63 | 248 | 1.7 | 9.6 | 0.00 | 0.04 | 0.04 | 79 | 1023.2 |
| 20260506043028 | 63 | 0 | 2.6 | 7.8 | 0.00 | 0.04 | 0.04 | 80 | 1023.3 |
| 20260506042511 | 63 | 274 | 2.6 | 7.8 | 0.00 | 0.04 | 0.04 | 80 | 1023.3 |
| 20260506042011 | 63 | 211 | 1.7 | 10.4 | 0.00 | 0.04 | 0.04 | 81 | 1023.2 |
| 20260506041529 | 63 | 219 | 0.9 | 10.4 | 0.00 | 0.04 | 0.04 | 81 | 1023.2 |
| 20260506041011 | 62 | 155 | 2.6 | 9.6 | 0.00 | 0.04 | 0.04 | 81 | 1023.4 |
| 20260506040510 | 62 | 252 | 2.6 | 7.0 | 0.00 | 0.04 | 0.04 | 82 | 1023.4 |
| 20260506040037 | 62 | 251 | 1.7 | 7.0 | 0.02 | 0.04 | 0.04 | 83 | 1023.4 |
| 20260506035510 | 62 | 0 | 0.9 | 7.0 | 0.03 | 0.04 | 0.04 | 83 | 1023.5 |
| 20260506035011 | 62 | 256 | 1.7 | 7.0 | 0.03 | 0.04 | 0.04 | 83 | 1023.6 |
| 20260506034529 | 62 | 222 | 1.7 | 12.2 | 0.03 | 0.04 | 0.04 | 83 | 1023.7 |
| 20260506034012 | 62 | 227 | 1.7 | 12.2 | 0.03 | 0.04 | 0.04 | 83 | 1023.5 |
| 20260506033511 | 62 | 275 | 2.6 | 9.6 | 0.03 | 0.04 | 0.04 | 82 | 1023.7 |
| 20260506033026 | 62 | 260 | 2.6 | 9.6 | 0.03 | 0.04 | 0.04 | 82 | 1023.6 |
| 20260506032511 | 63 | 255 | 2.6 | 7.0 | 0.03 | 0.04 | 0.04 | 81 | 1023.5 |
| 20260506032011 | 63 | 263 | 0.9 | 10.4 | 0.03 | 0.04 | 0.04 | 81 | 1023.7 |
| 20260506031530 | 63 | 263 | 2.6 | 10.4 | 0.03 | 0.04 | 0.04 | 79 | 1023.8 |
| 20260506031010 | 63 | 277 | 3.5 | 13.0 | 0.03 | 0.04 | 0.04 | 78 | 1023.9 |
| 20260506030513 | 64 | 313 | 4.3 | 13.0 | 0.02 | 0.03 | 0.03 | 76 | 1024.1 |
| 20260506030028 | 65 | 292 | 4.3 | 9.6 | 0.00 | 0.01 | 0.01 | 74 | 1024.0 |
| 20260506025510 | 65 | 294 | 4.3 | 9.6 | 0.00 | 0.01 | 0.01 | 73 | 1023.9 |
| 20260506025010 | 66 | 302 | 2.6 | 9.6 | 0.00 | 0.01 | 0.01 | 73 | 1024.0 |
| 20260506024531 | 65 | 296 | 3.5 | 9.6 | 0.00 | 0.01 | 0.01 | 73 | 1024.0 |
| 20260506024010 | 65 | 294 | 3.5 | 9.6 | 0.00 | 0.01 | 0.01 | 72 | 1024.1 |
| 20260506023508 | 65 | 307 | 3.5 | 8.7 | 0.00 | 0.01 | 0.01 | 72 | 1024.3 |
| 20260506023030 | 65 | 296 | 2.6 | 8.7 | 0.00 | 0.01 | 0.01 | 72 | 1024.4 |
| 20260506022510 | 65 | 294 | 2.6 | 8.7 | 0.00 | 0.01 | 0.01 | 72 | 1024.5 |
| 20260506022012 | 65 | 294 | 3.5 | 9.6 | 0.00 | 0.01 | 0.01 | 72 | 1024.6 |
| 20260506021533 | 65 | 298 | 1.7 | 9.6 | 0.00 | 0.01 | 0.01 | 72 | 1024.7 |
| 20260506021008 | 65 | 285 | 2.6 | 7.8 | 0.00 | 0.01 | 0.01 | 73 | 1024.6 |
| 20260506020507 | 65 | 284 | 1.7 | 7.8 | 0.00 | 0.01 | 0.01 | 73 | 1024.6 |
| 20260506020033 | 65 | 285 | 2.6 | 7.8 | 0.00 | 0.01 | 0.01 | 75 | 1024.6 |
| 20260506015507 | 64 | 282 | 1.7 | 7.8 | 0.00 | 0.01 | 0.01 | 76 | 1024.5 |
| 20260506015019 | 64 | 284 | 3.5 | 7.8 | 0.00 | 0.01 | 0.01 | 76 | 1024.6 |
| 20260506014528 | 63 | 271 | 2.6 | 9.6 | 0.00 | 0.01 | 0.01 | 79 | 1024.7 |
| 20260506014009 | 63 | 266 | 3.5 | 9.6 | 0.00 | 0.01 | 0.01 | 79 | 1024.8 |
| 20260506013508 | 62 | 281 | 2.6 | 7.0 | 0.00 | 0.01 | 0.01 | 80 | 1024.9 |
| 20260506013030 | 62 | 284 | 2.6 | 7.0 | 0.00 | 0.01 | 0.01 | 81 | 1024.9 |
| 20260506012511 | 62 | 281 | 2.6 | 7.0 | 0.00 | 0.01 | 0.01 | 81 | 1024.8 |
| 20260506012008 | 62 | 276 | 2.6 | 7.0 | 0.00 | 0.01 | 0.01 | 82 | 1024.9 |
| 20260506011531 | 62 | 295 | 0.9 | 7.0 | 0.00 | 0.01 | 0.01 | 83 | 1024.9 |
| 20260506011010 | 62 | 0 | 0.0 | 2.6 | 0.00 | 0.01 | 0.01 | 83 | 1024.9 |
| 20260506010511 | 62 | 0 | 0.0 | 7.0 | 0.00 | 0.01 | 0.01 | 83 | 1024.8 |
| 20260506010044 | 62 | 297 | 1.7 | 7.0 | 0.00 | 0.01 | 0.01 | 83 | 1025.0 |
| 20260506005508 | 61 | 281 | 0.0 | 2.6 | 0.00 | 0.01 | 0.01 | 84 | 1024.9 |
| 20260506005008 | 61 | 0 | 0.0 | 2.6 | 0.00 | 0.01 | 0.01 | 84 | 1025.1 |
| 20260506004527 | 61 | 274 | 0.0 | 2.6 | 0.00 | 0.01 | 0.01 | 83 | 1025.1 |
| 20260506004010 | 61 | 0 | 0.9 | 2.6 | 0.00 | 0.01 | 0.01 | 83 | 1025.1 |
| 20260506003512 | 61 | 0 | 0.0 | 1.7 | 0.00 | 0.01 | 0.01 | 83 | 1025.1 |
| 20260506003026 | 60 | 273 | 0.0 | 2.6 | 0.00 | 0.01 | 0.01 | 83 | 1025.2 |
| 20260506002507 | 60 | 273 | 0.0 | 2.6 | 0.00 | 0.01 | 0.01 | 83 | 1025.2 |
| 20260506002011 | 60 | 0 | 0.0 | 2.6 | 0.00 | 0.01 | 0.01 | 83 | 1025.1 |
| 20260506001528 | 60 | 273 | 0.0 | 2.6 | 0.00 | 0.01 | 0.01 | 83 | 1025.1 |
| 20260506001009 | 60 | 0 | 0.0 | 3.5 | 0.00 | 0.00 | 0.00 | 83 | 1025.0 |
| 20260506000511 | 60 | 0 | 0.0 | 3.5 | 0.00 | 0.00 | 0.00 | 83 | 1025.1 |
| 20260506000027 | 60 | 0 | 0.0 | 3.5 | 0.00 | 0.00 | 0.00 | 83 | 1025.2 |
| 20260505235509 | 60 | 0 | 0.0 | 1.7 | 0.00 | 0.00 | 0.00 | 83 | 1025.0 |
| 20260505235027 | 61 | 273 | 0.0 | 1.7 | 0.00 | 0.00 | 0.00 | 84 | 1025.2 |
| 20260505234536 | 61 | 0 | 0.0 | 3.5 | 0.00 | 0.00 | 0.00 | 84 | 1025.2 |
| 20260505234012 | 61 | 0 | 0.0 | 3.5 | 0.00 | 0.00 | 0.00 | 85 | 1025.1 |
| 20260505233509 | 60 | 273 | 0.0 | 5.2 | 0.00 | 0.00 | 0.00 | 85 | 1025.2 |
| 20260505233036 | 60 | 272 | 0.0 | 5.2 | 0.00 | 0.00 | 0.00 | 84 | 1025.2 |
| 20260505232511 | 59 | 271 | 0.9 | 5.2 | 0.00 | 0.00 | 0.00 | 84 | 1025.2 |
| 20260505232009 | 59 | 259 | 0.0 | 2.6 | 0.00 | 0.00 | 0.00 | 84 | 1025.3 |
| 20260505231532 | 59 | 0 | 0.0 | 2.6 | 0.00 | 0.00 | 0.00 | 84 | 1025.3 |
| 20260505231009 | 58 | 0 | 0.0 | 2.6 | 0.00 | 0.00 | 0.00 | 84 | 1025.2 |
| 20260505230511 | 58 | 0 | 0.0 | 2.6 | 0.00 | 0.00 | 0.00 | 83 | 1025.1 |
| 20260505230028 | 58 | 259 | 0.0 | 2.6 | 0.00 | 0.00 | 0.00 | 83 | 1025.2 |
| 20260505225512 | 58 | 0 | 0.0 | 1.7 | 0.00 | 0.00 | 0.00 | 84 | 1025.1 |
| 20260505225013 | 58 | 0 | 0.0 | 3.5 | 0.00 | 0.00 | 0.00 | 83 | 1025.1 |
| 20260505224533 | 58 | 0 | 0.0 | 3.5 | 0.00 | 0.00 | 0.00 | 83 | 1024.9 |
| 20260505224011 | 58 | 258 | 0.0 | 3.5 | 0.00 | 0.00 | 0.00 | 83 | 1024.9 |
| 20260505223516 | 58 | 0 | 0.0 | 3.5 | 0.00 | 0.00 | 0.00 | 83 | 1024.8 |
| 20260505223030 | 57 | 250 | 0.9 | 3.5 | 0.00 | 0.00 | 0.00 | 83 | 1024.7 |
| 20260505222516 | 57 | 0 | 0.0 | 1.7 | 0.00 | 0.00 | 0.00 | 82 | 1024.8 |
| 20260505222013 | 57 | 249 | 0.0 | 1.7 | 0.00 | 0.00 | 0.00 | 82 | 1024.6 |
| 20260505221528 | 57 | 0 | 0.0 | 1.7 | 0.00 | 0.00 | 0.00 | 82 | 1024.7 |
| 20260505221020 | 57 | 0 | 0.0 | 1.7 | 0.00 | 0.00 | 0.00 | 82 | 1024.6 |
| 20260505220510 | 57 | 249 | 0.0 | 1.7 | 0.00 | 0.00 | 0.00 | 82 | 1024.5 |
| 20260505220027 | 57 | 0 | 0.0 | 1.7 | 0.00 | 0.00 | 0.00 | 82 | 1024.6 |
| 20260505215509 | 57 | 0 | 0.0 | 1.7 | 0.00 | 0.00 | 0.00 | 81 | 1024.4 |
| 20260505215012 | 57 | 0 | 0.0 | 0.9 | 0.00 | 0.00 | 0.00 | 81 | 1024.4 |
| 20260505214556 | 57 | 0 | 0.0 | 0.9 | 0.00 | 0.00 | 0.00 | 81 | 1024.4 |
| 20260505214014 | 57 | 0 | 0.0 | 1.7 | 0.00 | 0.00 | 0.00 | 81 | 1024.2 |
| 20260505213513 | 57 | 0 | 0.0 | 1.7 | 0.00 | 0.00 | 0.00 | 81 | 1024.3 |
| 20260505213030 | 57 | 0 | 0.0 | 0.9 | 0.00 | 0.00 | 0.00 | 81 | 1024.2 |
| 20260505212518 | 57 | 0 | 0.0 | 2.6 | 0.00 | 0.00 | 0.00 | 81 | 1024.2 |
| 20260505212014 | 57 | 0 | 0.0 | 2.6 | 0.00 | 0.00 | 0.00 | 81 | 1024.1 |
| 20260505211531 | 57 | 0 | 0.0 | 1.7 | 0.00 | 0.00 | 0.00 | 81 | 1024.2 |
| 20260505211011 | 57 | 0 | 0.0 | 0.9 | 0.00 | 0.00 | 0.00 | 81 | 1024.1 |
| 20260505210510 | 57 | 0 | 0.0 | 1.7 | 0.00 | 0.00 | 0.00 | 81 | 1024.2 |
| 20260505210030 | 57 | 0 | 0.0 | 1.7 | 0.00 | 0.00 | 0.00 | 81 | 1024.2 |
| 20260505205509 | 57 | 0 | 0.0 | 0.9 | 0.00 | 0.00 | 0.00 | 81 | 1024.2 |
| 20260505205015 | 57 | 0 | 0.0 | 2.6 | 0.00 | 0.00 | 0.00 | 81 | 1024.2 |
| 20260505204528 | 57 | 0 | 0.0 | 2.6 | 0.00 | 0.00 | 0.00 | 81 | 1024.1 |
| 20260505204017 | 57 | 0 | 0.0 | 2.6 | 0.00 | 0.00 | 0.00 | 81 | 1024.2 |
| 20260505203512 | 57 | 0 | 0.0 | 2.6 | 0.00 | 0.00 | 0.00 | 81 | 1024.1 |
| 20260505203035 | 57 | 0 | 0.0 | 2.6 | 0.00 | 0.00 | 0.00 | 81 | 1024.2 |
| 20260505202513 | 57 | 0 | 0.0 | 2.6 | 0.00 | 0.00 | 0.00 | 81 | 1024.1 |
| 20260505202013 | 57 | 0 | 0.0 | 2.6 | 0.00 | 0.00 | 0.00 | 81 | 1024.1 |
| 20260505201535 | 57 | 0 | 0.0 | 2.6 | 0.00 | 0.00 | 0.00 | 81 | 1024.0 |
| 20260505201012 | 57 | 248 | 0.0 | 2.6 | 0.00 | 0.00 | 0.00 | 81 | 1024.0 |
| 20260505200509 | 57 | 0 | 0.0 | 1.7 | 0.00 | 0.00 | 0.00 | 81 | 1024.1 |
| 20260505200029 | 57 | 248 | 0.0 | 1.7 | 0.00 | 0.00 | 0.00 | 81 | 1024.0 |
| 20260505195513 | 57 | 0 | 0.0 | 1.7 | 0.00 | 0.00 | 0.00 | 81 | 1024.1 |
| 20260505195010 | 57 | 0 | 0.0 | 1.7 | 0.00 | 0.00 | 0.00 | 81 | 1024.0 |
| 20260505194528 | 57 | 0 | 0.0 | 1.7 | 0.00 | 0.00 | 0.00 | 81 | 1024.0 |
| 20260505194014 | 57 | 0 | 0.0 | 0.0 | 0.00 | 0.00 | 0.00 | 81 | 1024.0 |
| 20260505193510 | 57 | 0 | 0.0 | 0.9 | 0.00 | 0.00 | 0.00 | 81 | 1024.1 |
| 20260505193031 | 57 | 0 | 0.0 | 2.6 | 0.00 | 0.00 | 0.00 | 81 | 1024.1 |
| 20260505192510 | 57 | 248 | 0.0 | 2.6 | 0.00 | 0.01 | 0.00 | 81 | 1024.0 |
| 20260505192009 | 57 | 248 | 0.0 | 2.6 | 0.00 | 0.01 | 0.00 | 81 | 1024.1 |
| 20260505191530 | 57 | 0 | 0.0 | 2.6 | 0.00 | 0.01 | 0.00 | 81 | 1024.0 |
| 20260505191011 | 57 | 248 | 0.0 | 2.6 | 0.00 | 0.01 | 0.00 | 81 | 1024.0 |
| 20260505190510 | 57 | 248 | 0.0 | 2.6 | 0.00 | 0.01 | 0.00 | 81 | 1024.0 |
| 20260505190027 | 57 | 0 | 0.0 | 2.6 | 0.00 | 0.01 | 0.00 | 81 | 1024.1 |